Regional Weather Roundup
Issued by NWS

Home | Current Version | Previous Version | Text Only | Print | Product List | Glossary Off
Versions: 1 2 3 4 5 6 7 8 9 10 11 12 13 14 15 16 17 18 19 20 21 22 23 24 25 26 27 28 29 30 31 32 33 34 35 36 37 38 39 40 41 42 43 44 45 46 47 48 49 50

101
ASUS44 KJAN 281510
RWRMS

MISSISSIPPI HOURLY WEATHER ROUNDUP
NATIONAL WEATHER SERVICE JACKSON MS
900 AM CST WED JAN 28 2015

NOTE: "FAIR: INDICATES FEW OR NO CLOUDS BELOW 12,000 FEET WITH NO
SIGNIFICANT WEATHER AND/OR OBSTRUCTIONS TO VISIBILITY.

MSZ001>002-007>008-010>013-018>021-025>028-034>036-281600-
NORTHWEST MISSISSIPPI

CITY           SKY/WX    TMP DP  RH WIND       PRES   REMARKS
CLARKSDALE     FAIR      41  32  70 SE9       30.31R
CLEVELAND      FAIR      43  36  75 MISG      30.28S
GREENWOOD      SUNNY     43  32  65 E7        30.30R
GREENVILLE     SUNNY     45  36  70 SE10      30.28R
GRENADA        FAIR      41  32  70 SE7       30.32R
OLIVE BRANCH   MOSUNNY   36  32  87 E7        30.30R WCI  30
OXFORD         FAIR      37  27  65 SE9G16    30.32R WCI  31
TUNICA         SUNNY     39  32  75 SE8       30.32R WCI  34
$$

MSZ003>006-009-014>017-022>024-029>033-037>039-281600-
NORTHEAST MISSISSIPPI

CITY           SKY/WX    TMP DP  RH WIND       PRES   REMARKS
COLUMBUS AFB   SUNNY     39  30  69 SE5       30.34R
CORINTH        FAIR      36  28  75 SE5       30.31R WCI  32
GOLDN TRIANGLE SUNNY     39  28  65 E9        30.32R WCI  33
STARKVILLE     FAIR      41  32  70 E9        30.31F
TUPELO         SUNNY     38  29  70 SE9       30.32R WCI  31
$$

MSZ040-058-281600-
CENTRAL MISSISSIPPI

CITY           SKY/WX    TMP DP  RH WIND       PRES   REMARKS
JACKSON INTL   SUNNY     48  32  53 SE5       30.28R
JACKSON HAWKNS SUNNY     47  33  58 SE7       30.29R
MERIDIAN KEY   SUNNY     43  32  65 NE7       30.31S
MERIDIAN NAS   SUNNY     41  31  67 E8        30.32R
RAYMOND        FAIR      46  43  87 MISG      30.28S
VICKSBURG      SUNNY     49  36  61 SE9       30.28R
$$

MSZ059>079-281600-
SOUTH MISSISSIPPI

CITY           SKY/WX    TMP DP  RH WIND       PRES   REMARKS
BROOKHAVEN     FAIR      48  36  61 SE6       30.29R
HATTIESBURG    SUNNY     45  36  70 E8        30.32R
MCCOMB         SUNNY     48  35  60 E7        30.28R
NATCHEZ        MOSUNNY   52  36  54 SE9       30.27R
PINE BELT      SUNNY     45  34  65 E5        30.31R
$$

MSZ080>082-281600-
COASTAL MISSISSIPPI

CITY           SKY/WX    TMP DP  RH WIND       PRES   REMARKS
BAY ST LOUIS   SUNNY     50  32  50 E6        30.30R
BILOXI         SUNNY     50  36  59 E8        30.29S
PASCAGOULA     SUNNY     48  36  63 VRB6      30.30S
GULFPORT       SUNNY     50  35  56 E9        30.29S
$$



USA.gov is the U.S. government's official web portal to all federal, state and local government web resources and services.